Fort Greely, AK

9:09 AM AKST on December 02, 2016 (GMT -0900)
Allen Army Air Field

Weather History for PABI - December, 2011

Change the Weather History Date:

Monday, December 12, 2011

  Actual Average Record
Temperature  
Mean Temperature 22 °F -  
Max Temperature 24 °F 4 °F 24 °F (2011)
Min Temperature 19 °F -3 °F -29 °F (2010)
Degree Days  
Heating Degree Days 44    
Moisture  
Dew Point 19 °F    
Average Humidity 89    
Maximum Humidity 100    
Minimum Humidity 71    
Precipitation  
Precipitation 0.09 in - - ()
Sea Level Pressure  
Sea Level Pressure 29.34 in    
Wind  
Wind Speed 9 mph (WSW)    
Max Wind Speed 28 mph    
Max Gust Speed 40 mph    
Visibility 6 miles    
Events Snow    
Averages and records for this station are not official NWS values.
T = Trace of Precipitation, MM = Missing Value Source: NWS Daily Summary

Daily Weather History Graph

Daily Weather History Graph

Search for Another Location

Airport or City:

Trip Planner

Search our weather history database for the weather conditions in past years. The results will help you decide how hot, cold, wet, or windy it might be!

Date:

Astronomy

Dec. 12, 2011 Rise Set
Actual Time 10:24 AM AKST 2:48 PM AKST
Civil Twilight 9:08 AM AKST 4:04 PM AKST
Nautical Twilight 8:00 AM AKST 5:12 PM AKST
Astronomical Twilight 7:01 AM AKST 6:11 PM AKST
Moon 5:42 PM AKST (12/12) 11:34 AM AKST (12/12)
Length of Visible Light 6h 56m
Length of Day
4h 24m
Waning Gibbous, 95% of the Moon is Illuminated
Dec 12
Waning Gibbous
Dec 17
Last Quarter
Dec 24
New
Dec 31
First Quarter
Jan 8
Full

Hourly Weather History & Observations

Time (AKST) Temp. Windchill Dew Point Humidity Pressure Visibility Wind Dir Wind Speed Gust Speed Precip Events Conditions
12:53 AM 21.0 °F 3.3 °F 12.9 °F 71% 28.95 in 10.0 mi ESE 27.6 mph 40.3 mph N/A   Clear
1:53 AM 21.0 °F 4.3 °F 12.9 °F 71% 28.95 in 10.0 mi ESE 24.2 mph 31.1 mph N/A   Clear
2:53 AM 21.0 °F 9.3 °F 14.0 °F 74% 28.98 in 10.0 mi East 11.5 mph - N/A   Mostly Cloudy
3:53 AM 21.9 °F 9.8 °F 15.1 °F 75% 29.02 in 10.0 mi ESE 12.7 mph - N/A   Overcast
4:53 AM 21.9 °F 17.2 °F 14.0 °F 72% 29.07 in 10.0 mi SSE 3.5 mph - N/A   Overcast
5:27 AM 19.4 °F 12.8 °F 15.8 °F 86% 29.02 in 2.5 mi WSW 4.6 mph - 0.00 in Snow Light Snow
5:34 AM 19.4 °F 14.3 °F 17.6 °F 93% 29.02 in 3.0 mi West 3.5 mph - 0.00 in Snow Light Snow
5:44 AM 19.4 °F 14.3 °F 17.6 °F 93% 29.03 in 2.0 mi WSW 3.5 mph - 0.00 in Snow Light Snow
5:53 AM 19.9 °F 14.9 °F 17.1 °F 89% 29.13 in 1.5 mi SW 3.5 mph - 0.00 in Snow Light Snow
6:16 AM 19.4 °F 14.3 °F 17.6 °F 93% 29.05 in 2.0 mi WSW 3.5 mph - 0.01 in Snow Light Snow
6:23 AM 19.4 °F 12.8 °F 17.6 °F 93% 29.06 in 1.5 mi WNW 4.6 mph - 0.01 in Snow Light Snow
6:35 AM 19.4 °F 10.4 °F 17.6 °F 93% 29.08 in 0.8 mi West 6.9 mph - 0.02 in Snow Light Snow
6:53 AM 21.0 °F 11.4 °F 19.0 °F 92% 29.19 in 0.8 mi WNW 8.1 mph - 0.02 in Snow Light Snow
7:53 AM 21.9 °F 14.5 °F 21.0 °F 96% 29.25 in 0.8 mi West 5.8 mph - 0.04 in Snow Light Snow
8:00 AM 21.2 °F 12.6 °F 21.2 °F 100% 29.16 in 1.0 mi NW 6.9 mph - 0.00 in Snow Light Snow
8:26 AM 21.2 °F - 21.2 °F 100% 29.18 in 1.8 mi Calm Calm - 0.01 in Snow Light Snow
8:40 AM 21.2 °F - 21.2 °F 100% 29.19 in 3.0 mi Calm Calm - 0.01 in Snow Light Snow
8:50 AM 21.2 °F - 21.2 °F 100% 29.19 in 2.0 mi Calm Calm - 0.02 in Snow Light Snow
8:53 AM 21.9 °F - 21.0 °F 96% 29.29 in 2.0 mi Calm Calm - 0.02 in Snow Light Snow
9:11 AM 21.2 °F 16.4 °F 21.2 °F 100% 29.21 in 3.0 mi SW 3.5 mph - 0.00 in Snow Light Snow
9:29 AM 23.0 °F 17.0 °F 21.2 °F 93% 29.23 in 5.0 mi SSW 4.6 mph - 0.00 in Snow Light Snow
9:36 AM 23.0 °F 17.0 °F 21.2 °F 93% 29.23 in 9.0 mi SW 4.6 mph - 0.00 in Snow Light Snow
9:53 AM 23.0 °F 15.8 °F 21.0 °F 92% 29.34 in 8.0 mi SSW 5.8 mph - 0.00 in   Overcast
10:43 AM 23.0 °F 14.7 °F 21.2 °F 93% 29.28 in 2.5 mi SW 6.9 mph - 0.00 in Snow Light Snow
10:53 AM 23.0 °F 14.7 °F 21.9 °F 96% 29.38 in 1.0 mi SW 6.9 mph - 0.00 in Snow Light Snow
11:06 AM 23.0 °F 15.8 °F 21.2 °F 93% 29.30 in 2.0 mi SSW 5.8 mph - 0.00 in Snow Light Snow
11:16 AM 23.0 °F 17.0 °F 21.2 °F 93% 29.31 in 3.0 mi SSW 4.6 mph - 0.00 in Snow Light Snow
11:53 AM 23.0 °F 15.8 °F 21.9 °F 96% 29.42 in 10.0 mi SW 5.8 mph - 0.01 in   Overcast
12:31 PM 24.8 °F 20.5 °F 21.2 °F 86% 29.37 in 3.0 mi West 3.5 mph - 0.00 in Snow Light Snow
12:53 PM 24.1 °F 16.0 °F 21.9 °F 91% 29.47 in 4.0 mi WNW 6.9 mph - 0.00 in Snow Light Snow
1:25 PM 24.8 °F 19.1 °F 21.2 °F 86% 29.41 in 10.0 mi WNW 4.6 mph - 0.00 in   Overcast
1:53 PM 24.1 °F - 19.9 °F 84% 29.51 in 10.0 mi Calm Calm - 0.00 in   Overcast
2:53 PM 23.0 °F 18.4 °F 19.9 °F 88% 29.55 in 10.0 mi SSW 3.5 mph - N/A   Overcast
3:14 PM 23.0 °F 18.4 °F 19.4 °F 86% 29.47 in 10.0 mi WSW 3.5 mph - N/A   Overcast
3:53 PM 24.1 °F 19.7 °F 19.0 °F 81% 29.58 in 10.0 mi West 3.5 mph - N/A   Overcast
4:17 PM 23.0 °F 18.4 °F 19.4 °F 86% 29.51 in 10.0 mi WSW 3.5 mph - N/A   Overcast
4:51 PM 23.0 °F 18.4 °F 19.4 °F 86% 29.52 in 10.0 mi West 3.5 mph - N/A   Mostly Cloudy
4:53 PM 23.0 °F 18.4 °F 19.0 °F 85% 29.61 in 10.0 mi WSW 3.5 mph - N/A   Overcast
5:04 PM 23.0 °F 17.0 °F 19.4 °F 86% 29.53 in 10.0 mi WSW 4.6 mph - N/A   Overcast
5:27 PM 21.2 °F 14.9 °F 19.4 °F 93% 29.53 in 10.0 mi South 4.6 mph - N/A   Overcast
5:53 PM 21.9 °F 14.5 °F 19.0 °F 89% 29.64 in 10.0 mi SSW 5.8 mph - N/A   Overcast
6:53 PM 23.0 °F 14.7 °F 19.9 °F 88% 29.68 in 9.0 mi WNW 6.9 mph - 0.00 in Snow Light Snow
7:53 PM 23.0 °F 17.0 °F 19.9 °F 88% 29.70 in 5.0 mi West 4.6 mph - 0.00 in Snow Light Snow
8:53 PM 23.0 °F 18.4 °F 19.9 °F 88% 29.72 in 9.0 mi SW 3.5 mph - 0.00 in Snow Light Snow
9:53 PM 23.0 °F 17.0 °F 19.9 °F 88% 29.75 in 10.0 mi SW 4.6 mph - 0.00 in   Overcast
10:53 PM 23.0 °F 17.0 °F 19.9 °F 88% 29.76 in 10.0 mi WSW 4.6 mph - N/A   Overcast
11:04 PM 23.0 °F 15.8 °F 19.4 °F 86% 29.68 in 10.0 mi WSW 5.8 mph - N/A   Overcast
11:53 PM 23.0 °F 15.8 °F 19.9 °F 88% 29.79 in 7.0 mi SW 5.8 mph - 0.00 in Snow Light Snow